Wetterdaten: Woche 11.01.16 - 17.01.16 (KW2)
Datum Zeit Temp. A. Feuchte A. Luftdruck Regen Wind Richtung Sonnenschein ET UV Solar Taupunkt Windchill Windben Empfang
11.01.2016 00:00 0,9 C 99 % 1000,1 hPa 0,0 l/m 2,9 km/h (1 Bft) O-SO 0,00 h 0,000 mm 0,0 UV-I 0 W/m 0,8 C 0,9 C 7,5 km/h (2 Bft) 99,07 %
11.01.2016 01:00 0,9 C 99 % 1001,0 hPa 0,0 l/m 0,8 km/h (0 Bft) W-NW 0,00 h 0,000 mm 0,0 UV-I 0 W/m 0,8 C 0,9 C 3,2 km/h (1 Bft) 98,16 %
11.01.2016 02:00 1,2 C 99 % 1001,4 hPa 0,0 l/m 1,4 km/h (1 Bft) SO 0,00 h 0,000 mm 0,0 UV-I 0 W/m 1,1 C 1,2 C 3,3 km/h (1 Bft) 98,42 %
11.01.2016 03:00 1,2 C 99 % 1000,6 hPa 0,0 l/m 3,1 km/h (1 Bft) O-SO 0,00 h 0,000 mm 0,0 UV-I 0 W/m 1,1 C 0,9 C 6,0 km/h (2 Bft) 98,36 %
11.01.2016 04:00 1,1 C 99 % 999,7 hPa 0,0 l/m 4,7 km/h (1 Bft) NO 0,00 h 0,000 mm 0,0 UV-I 0 W/m 0,9 C 1,0 C 8,0 km/h (2 Bft) 98,26 %
11.01.2016 05:00 0,9 C 99 % 998,8 hPa 0,0 l/m 7,6 km/h (2 Bft) NO 0,00 h 0,000 mm 0,0 UV-I 0 W/m 0,7 C -0,4 C 11,8 km/h (2 Bft) 98,44 %
11.01.2016 06:00 0,8 C 99 % 998,0 hPa 0,0 l/m 5,8 km/h (2 Bft) O 0,00 h 0,000 mm 0,0 UV-I 0 W/m 0,6 C 0,5 C 10,2 km/h (2 Bft) 98,36 %
11.01.2016 07:00 0,3 C 99 % 997,2 hPa 0,0 l/m 9,4 km/h (2 Bft) NO 0,00 h 0,000 mm 0,0 UV-I 0 W/m 0,1 C -2,6 C 14,6 km/h (3 Bft) 98,72 %
11.01.2016 08:00 0,3 C 99 % 995,8 hPa 0,0 l/m 7,5 km/h (2 Bft) NO 0,00 h 0,000 mm 0,0 UV-I 16 W/m 0,1 C -0,9 C 12,6 km/h (3 Bft) 98,15 %
11.01.2016 09:00 0,7 C 99 % 994,7 hPa 0,0 l/m 4,8 km/h (1 Bft) O-NO 0,00 h 0,000 mm 0,0 UV-I 57 W/m 0,6 C 0,6 C 7,6 km/h (2 Bft) 98,89 %
11.01.2016 10:00 1,3 C 99 % 994,0 hPa 0,0 l/m 1,7 km/h (1 Bft) W 0,00 h 0,025 mm 0,0 UV-I 67 W/m 1,2 C 1,3 C 4,7 km/h (1 Bft) 97,92 %
11.01.2016 11:00 1,9 C 99 % 993,9 hPa 0,2 l/m 3,9 km/h (1 Bft) W-SW 0,00 h 0,026 mm 0,0 UV-I 35 W/m 1,8 C 1,7 C 8,6 km/h (2 Bft) 98,96 %
11.01.2016 12:00 2,1 C 99 % 993,7 hPa 1,0 l/m 10,9 km/h (2 Bft) S 0,00 h 0,025 mm 0,0 UV-I 29 W/m 1,9 C -1,7 C 21,1 km/h (4 Bft) 97,86 %
11.01.2016 13:00 2,9 C 99 % 992,8 hPa 1,6 l/m 4,2 km/h (1 Bft) S 0,00 h 0,000 mm 0,0 UV-I 22 W/m 2,8 C 2,9 C 8,8 km/h (2 Bft) 99,23 %
11.01.2016 14:00 3,5 C 99 % 992,1 hPa 0,6 l/m 2,7 km/h (1 Bft) S-SO 0,00 h 0,000 mm 0,0 UV-I 13 W/m 3,3 C 3,5 C 6,1 km/h (2 Bft) 97,94 %
11.01.2016 15:00 3,3 C 99 % 992,9 hPa 1,2 l/m 2,3 km/h (1 Bft) S-SO 0,00 h 0,000 mm 0,0 UV-I 6 W/m 3,2 C 3,0 C 7,1 km/h (2 Bft) 99,65 %
11.01.2016 16:00 5,8 C 99 % 993,6 hPa 1,2 l/m 19,1 km/h (3 Bft) SW 0,00 h 0,000 mm 0,0 UV-I 2 W/m 5,6 C -1,8 C 34,8 km/h (5 Bft) 97,40 %
11.01.2016 17:00 5,6 C 96 % 994,0 hPa 0,4 l/m 20,2 km/h (4 Bft) S-SW 0,00 h 0,000 mm 0,0 UV-I 0 W/m 5,0 C -2,4 C 34,9 km/h (5 Bft) 99,25 %
11.01.2016 18:00 5,8 C 91 % 994,1 hPa 0,2 l/m 19,0 km/h (3 Bft) S-SW 0,00 h 0,000 mm 0,0 UV-I 0 W/m 4,5 C -1,7 C 32,7 km/h (5 Bft) 97,72 %
11.01.2016 19:00 5,9 C 89 % 994,1 hPa 0,0 l/m 15,1 km/h (3 Bft) S-SW 0,00 h 0,026 mm 0,0 UV-I 0 W/m 4,3 C 0,2 C 26,7 km/h (4 Bft) 99,28 %
11.01.2016 20:00 5,9 C 87 % 993,6 hPa 0,0 l/m 12,0 km/h (2 Bft) S-SW 0,00 h 0,025 mm 0,0 UV-I 0 W/m 4,0 C 2,0 C 20,5 km/h (4 Bft) 97,65 %
11.01.2016 21:00 5,8 C 85 % 993,3 hPa 0,0 l/m 13,3 km/h (3 Bft) SW 0,00 h 0,025 mm 0,0 UV-I 0 W/m 3,5 C 1,0 C 21,1 km/h (4 Bft) 99,15 %
11.01.2016 22:00 5,6 C 86 % 993,8 hPa 0,0 l/m 12,2 km/h (3 Bft) S-SW 0,00 h 0,026 mm 0,0 UV-I 0 W/m 3,4 C 1,3 C 19,6 km/h (3 Bft) 97,56 %
11.01.2016 23:00 6,2 C 83 % 994,1 hPa 0,0 l/m 13,2 km/h (3 Bft) SW 0,00 h 0,025 mm 0,0 UV-I 0 W/m 3,4 C 1,7 C 22,3 km/h (4 Bft) 98,83 %
12.01.2016 00:00 5,6 C 87 % 994,8 hPa 0,2 l/m 16,7 km/h (3 Bft) W-SW 0,00 h 0,000 mm 0,0 UV-I 0 W/m 3,7 C -0,6 C 26,8 km/h (4 Bft) 98,50 %
12.01.2016 01:00 5,7 C 82 % 995,3 hPa 0,0 l/m 16,6 km/h (3 Bft) SW 0,00 h 0,025 mm 0,0 UV-I 0 W/m 2,9 C -0,6 C 26,6 km/h (4 Bft) 98,43 %
12.01.2016 02:00 4,8 C 83 % 995,8 hPa 0,0 l/m 12,7 km/h (3 Bft) SW 0,00 h 0,026 mm 0,0 UV-I 0 W/m 2,1 C 0,2 C 21,2 km/h (4 Bft) 99,30 %
12.01.2016 03:00 4,1 C 84 % 995,9 hPa 0,0 l/m 12,5 km/h (3 Bft) SW 0,00 h 0,025 mm 0,0 UV-I 0 W/m 1,7 C -0,5 C 20,8 km/h (4 Bft) 97,93 %
12.01.2016 04:00 4,9 C 83 % 996,0 hPa 0,4 l/m 16,9 km/h (3 Bft) W-SW 0,00 h 0,026 mm 0,0 UV-I 0 W/m 2,3 C -1,9 C 27,5 km/h (4 Bft) 99,49 %
12.01.2016 05:00 4,7 C 84 % 995,7 hPa 0,0 l/m 13,5 km/h (3 Bft) SW 0,00 h 0,025 mm 0,0 UV-I 0 W/m 2,2 C -0,4 C 22,9 km/h (4 Bft) 97,62 %
12.01.2016 06:00 4,5 C 84 % 995,8 hPa 0,0 l/m 11,8 km/h (2 Bft) SW 0,00 h 0,025 mm 0,0 UV-I 0 W/m 2,1 C 0,4 C 19,2 km/h (3 Bft) 99,29 %
12.01.2016 07:00 5,1 C 79 % 996,1 hPa 0,0 l/m 15,9 km/h (3 Bft) SW 0,00 h 0,026 mm 0,0 UV-I 1 W/m 1,8 C -1,1 C 25,7 km/h (4 Bft) 97,90 %
12.01.2016 08:00 5,7 C 75 % 996,6 hPa 0,0 l/m 17,5 km/h (3 Bft) S-SW 0,08 h 0,025 mm 0,0 UV-I 29 W/m 1,7 C -1,2 C 28,9 km/h (5 Bft) 99,57 %
12.01.2016 09:00 5,9 C 76 % 997,3 hPa 0,0 l/m 20,2 km/h (4 Bft) W-SW 0,00 h 0,051 mm 0,0 UV-I 73 W/m 1,9 C -2,1 C 32,3 km/h (5 Bft) 98,21 %
12.01.2016 10:00 6,3 C 77 % 997,6 hPa 0,0 l/m 25,6 km/h (4 Bft) S-SW 0,25 h 0,076 mm 0,0 UV-I 118 W/m 2,5 C -3,4 C 42,8 km/h (6 Bft) 99,16 %
12.01.2016 11:00 5,6 C 80 % 997,9 hPa 0,0 l/m 22,2 km/h (4 Bft) S-SW 0,00 h 0,102 mm 0,0 UV-I 112 W/m 2,5 C -3,1 C 38,8 km/h (5 Bft) 97,72 %
12.01.2016 12:00 4,5 C 86 % 999,0 hPa 0,0 l/m 22,0 km/h (4 Bft) SW 0,00 h 0,076 mm 0,0 UV-I 100 W/m 2,3 C -4,6 C 36,8 km/h (5 Bft) 99,08 %
12.01.2016 13:00 3,9 C 89 % 1000,3 hPa 0,0 l/m 25,1 km/h (4 Bft) W-SW 0,00 h 0,076 mm 0,0 UV-I 88 W/m 2,2 C -6,4 C 41,4 km/h (6 Bft) 98,23 %
12.01.2016 14:00 4,3 C 87 % 1000,9 hPa 0,0 l/m 23,7 km/h (4 Bft) W-SW 0,00 h 0,051 mm 0,0 UV-I 81 W/m 2,3 C -5,4 C 39,5 km/h (6 Bft) 98,93 %
12.01.2016 15:00 4,3 C 86 % 1001,7 hPa 0,2 l/m 22,3 km/h (4 Bft) W-SW 0,25 h 0,051 mm 0,0 UV-I 36 W/m 2,2 C -4,9 C 36,4 km/h (5 Bft) 98,55 %
12.01.2016 16:00 4,4 C 86 % 1002,1 hPa 0,0 l/m 16,9 km/h (3 Bft) S-SW 0,25 h 0,051 mm 0,0 UV-I 22 W/m 2,3 C -2,5 C 28,0 km/h (4 Bft) 98,96 %
12.01.2016 17:00 4,2 C 86 % 1002,6 hPa 0,0 l/m 15,2 km/h (3 Bft) SW 0,00 h 0,025 mm 0,0 UV-I 0 W/m 2,1 C -1,9 C 26,1 km/h (4 Bft) 98,30 %
12.01.2016 18:00 4,4 C 85 % 1002,9 hPa 0,0 l/m 15,3 km/h (3 Bft) SW 0,00 h 0,025 mm 0,0 UV-I 0 W/m 2,2 C -1,7 C 25,5 km/h (4 Bft) 98,49 %
12.01.2016 19:00 4,7 C 84 % 1003,3 hPa 0,0 l/m 18,3 km/h (3 Bft) W-SW 0,00 h 0,026 mm 0,0 UV-I 0 W/m 2,3 C -2,8 C 30,1 km/h (5 Bft) 98,35 %
12.01.2016 20:00 4,9 C 83 % 1003,6 hPa 0,0 l/m 17,3 km/h (3 Bft) SW 0,00 h 0,025 mm 0,0 UV-I 0 W/m 2,2 C -2,1 C 27,9 km/h (4 Bft) 98,51 %
12.01.2016 21:00 4,8 C 80 % 1003,9 hPa 0,0 l/m 16,8 km/h (3 Bft) SW 0,00 h 0,026 mm 0,0 UV-I 0 W/m 1,6 C -2,1 C 26,8 km/h (4 Bft) 98,85 %
12.01.2016 22:00 4,4 C 80 % 1004,3 hPa 0,0 l/m 17,1 km/h (3 Bft) W-SW 0,00 h 0,025 mm 0,0 UV-I 0 W/m 1,1 C -2,7 C 27,4 km/h (4 Bft) 97,95 %
12.01.2016 23:00 4,6 C 77 % 1004,8 hPa 0,0 l/m 18,9 km/h (3 Bft) W-SW 0,00 h 0,025 mm 0,0 UV-I 0 W/m 0,9 C -3,2 C 32,3 km/h (5 Bft) 99,71 %
13.01.2016 00:00 4,9 C 76 % 1005,2 hPa 0,0 l/m 18,8 km/h (3 Bft) W-SW 0,00 h 0,000 mm 0,0 UV-I 0 W/m 1,0 C -2,8 C 30,7 km/h (5 Bft) 98,07 %
13.01.2016 01:00 4,4 C 82 % 1005,7 hPa 0,0 l/m 17,9 km/h (3 Bft) SW 0,00 h 0,051 mm 0,0 UV-I 0 W/m 1,6 C -3,1 C 28,9 km/h (5 Bft) 99,07 %
13.01.2016 02:00 4,1 C 84 % 1006,4 hPa 0,0 l/m 14,6 km/h (3 Bft) SW 0,00 h 0,025 mm 0,0 UV-I 0 W/m 1,6 C -1,7 C 24,1 km/h (4 Bft) 97,75 %
13.01.2016 03:00 3,7 C 85 % 1006,7 hPa 0,0 l/m 18,6 km/h (3 Bft) SW 0,00 h 0,026 mm 0,0 UV-I 0 W/m 1,4 C -4,2 C 29,2 km/h (5 Bft) 99,30 %
13.01.2016 04:00 2,9 C 89 % 1007,2 hPa 0,0 l/m 20,0 km/h (4 Bft) W-SW 0,00 h 0,025 mm 0,0 UV-I 0 W/m 1,3 C -5,8 C 32,7 km/h (5 Bft) 98,03 %
13.01.2016 05:00 2,3 C 90 % 1007,6 hPa 0,0 l/m 20,8 km/h (4 Bft) W-SW 0,00 h 0,025 mm 0,0 UV-I 0 W/m 0,8 C -6,9 C 33,7 km/h (5 Bft) 99,43 %
13.01.2016 06:00 3,0 C 84 % 1007,7 hPa 0,0 l/m 20,6 km/h (4 Bft) W-SW 0,00 h 0,026 mm 0,0 UV-I 0 W/m 0,5 C -6,0 C 35,3 km/h (5 Bft) 97,94 %
13.01.2016 07:00 3,2 C 81 % 1007,9 hPa 0,0 l/m 24,2 km/h (4 Bft) W-SW 0,00 h 0,025 mm 0,0 UV-I 0 W/m 0,3 C -7,0 C 40,9 km/h (6 Bft) 99,19 %
13.01.2016 08:00 2,8 C 85 % 1008,5 hPa 0,0 l/m 21,5 km/h (4 Bft) W-SW 0,17 h 0,026 mm 0,0 UV-I 32 W/m 0,6 C -6,6 C 35,1 km/h (5 Bft) 97,94 %
13.01.2016 09:00 3,8 C 82 % 1008,6 hPa 0,0 l/m 18,7 km/h (3 Bft) SW 0,42 h 0,050 mm 0,0 UV-I 130 W/m 0,9 C -4,1 C 31,3 km/h (5 Bft) 99,47 %
13.01.2016 10:00 4,8 C 74 % 1008,7 hPa 0,0 l/m 25,4 km/h (4 Bft) SW 0,00 h 0,077 mm 0,0 UV-I 65 W/m 0,6 C -5,2 C 41,6 km/h (6 Bft) 98,28 %
13.01.2016 11:00 4,7 C 76 % 1008,6 hPa 0,0 l/m 29,8 km/h (5 Bft) SW 0,00 h 0,076 mm 0,0 UV-I 49 W/m 0,8 C -6,7 C 51,9 km/h (7 Bft) 99,71 %
13.01.2016 12:00 4,3 C 82 % 1008,9 hPa 0,0 l/m 28,4 km/h (4 Bft) SW 0,00 h 0,076 mm 0,0 UV-I 92 W/m 1,6 C -6,9 C 47,0 km/h (6 Bft) 97,79 %
13.01.2016 13:00 4,4 C 83 % 1010,0 hPa 0,0 l/m 27,8 km/h (4 Bft) W-SW 0,00 h 0,076 mm 0,0 UV-I 96 W/m 1,7 C -6,6 C 47,6 km/h (6 Bft) 99,38 %
13.01.2016 14:00 3,9 C 86 % 1011,1 hPa 0,4 l/m 25,0 km/h (4 Bft) SW 0,00 h 0,076 mm 0,0 UV-I 35 W/m 1,8 C -6,4 C 42,0 km/h (6 Bft) 97,86 %
13.01.2016 15:00 3,8 C 86 % 1012,4 hPa 0,0 l/m 21,9 km/h (4 Bft) SW 0,00 h 0,051 mm 0,0 UV-I 17 W/m 1,7 C -5,5 C 37,3 km/h (5 Bft) 99,01 %
13.01.2016 16:00 4,2 C 83 % 1013,4 hPa 0,0 l/m 23,3 km/h (4 Bft) W-SW 0,00 h 0,026 mm 0,0 UV-I 5 W/m 1,5 C -5,4 C 38,1 km/h (5 Bft) 98,03 %
13.01.2016 17:00 4,3 C 79 % 1014,4 hPa 0,0 l/m 26,6 km/h (4 Bft) SW 0,00 h 0,025 mm 0,0 UV-I 0 W/m 1,1 C -6,3 C 44,9 km/h (6 Bft) 99,29 %
13.01.2016 18:00 4,1 C 80 % 1015,3 hPa 0,0 l/m 25,3 km/h (4 Bft) W-SW 0,00 h 0,051 mm 0,0 UV-I 0 W/m 1,0 C -6,2 C 41,7 km/h (6 Bft) 98,50 %
13.01.2016 19:00 3,5 C 83 % 1015,6 hPa 0,0 l/m 28,2 km/h (4 Bft) W-SW 0,00 h 0,051 mm 0,0 UV-I 0 W/m 0,9 C -7,9 C 47,4 km/h (6 Bft) 98,49 %
13.01.2016 20:00 3,4 C 83 % 1016,5 hPa 0,2 l/m 25,5 km/h (4 Bft) W 0,00 h 0,050 mm 0,0 UV-I 0 W/m 0,8 C -7,2 C 40,6 km/h (6 Bft) 98,75 %
13.01.2016 21:00 3,8 C 78 % 1017,0 hPa 0,0 l/m 22,8 km/h (4 Bft) W-SW 0,00 h 0,026 mm 0,0 UV-I 0 W/m 0,2 C -5,8 C 37,5 km/h (5 Bft) 98,60 %
13.01.2016 22:00 3,8 C 75 % 1017,4 hPa 0,0 l/m 21,9 km/h (4 Bft) W-SW 0,00 h 0,051 mm 0,0 UV-I 0 W/m -0,3 C -5,5 C 35,4 km/h (5 Bft) 98,78 %
13.01.2016 23:00 3,6 C 72 % 1017,7 hPa 0,0 l/m 23,0 km/h (4 Bft) W 0,00 h 0,050 mm 0,0 UV-I 0 W/m -1,1 C -6,1 C 38,2 km/h (5 Bft) 98,48 %
14.01.2016 00:00 3,2 C 71 % 1017,8 hPa 0,0 l/m 18,1 km/h (3 Bft) SW 0,00 h 0,000 mm 0,0 UV-I 0 W/m -1,5 C -4,6 C 29,0 km/h (5 Bft) 99,24 %
14.01.2016 01:00 2,9 C 72 % 1018,0 hPa 0,0 l/m 14,3 km/h (3 Bft) SW 0,00 h 0,051 mm 0,0 UV-I 0 W/m -1,6 C -2,9 C 23,6 km/h (4 Bft) 97,94 %
14.01.2016 02:00 2,8 C 73 % 1017,9 hPa 0,0 l/m 11,6 km/h (2 Bft) W-SW 0,00 h 0,025 mm 0,0 UV-I 0 W/m -1,6 C -1,5 C 19,4 km/h (3 Bft) 99,57 %
14.01.2016 03:00 2,1 C 74 % 1017,9 hPa 0,0 l/m 10,2 km/h (2 Bft) SW 0,00 h 0,026 mm 0,0 UV-I 0 W/m -2,1 C -1,3 C 17,4 km/h (3 Bft) 97,95 %
14.01.2016 04:00 2,1 C 73 % 1017,8 hPa 0,0 l/m 9,5 km/h (2 Bft) S-SW 0,00 h 0,025 mm 0,0 UV-I 0 W/m -2,3 C -0,7 C 16,9 km/h (3 Bft) 99,15 %
14.01.2016 05:00 1,5 C 75 % 1017,4 hPa 0,0 l/m 6,1 km/h (2 Bft) S-SW 0,00 h 0,025 mm 0,0 UV-I 0 W/m -2,5 C 1,3 C 9,7 km/h (2 Bft) 97,96 %
14.01.2016 06:00 0,8 C 78 % 1016,8 hPa 0,0 l/m 5,1 km/h (1 Bft) SW 0,00 h 0,026 mm 0,0 UV-I 0 W/m -2,7 C 0,8 C 8,2 km/h (2 Bft) 99,37 %
14.01.2016 07:00 0,7 C 77 % 1016,5 hPa 0,0 l/m 4,2 km/h (1 Bft) S 0,00 h 0,000 mm 0,0 UV-I 4 W/m -2,9 C 0,7 C 7,3 km/h (2 Bft) 97,57 %
14.01.2016 08:00 1,1 C 74 % 1016,0 hPa 0,0 l/m 4,2 km/h (1 Bft) S 0,00 h 0,000 mm 0,0 UV-I 31 W/m -3,1 C 1,1 C 8,2 km/h (2 Bft) 99,36 %
14.01.2016 09:00 1,0 C 80 % 1015,4 hPa 0,0 l/m 4,6 km/h (1 Bft) NO 0,75 h 0,025 mm 0,0 UV-I 136 W/m -2,1 C 0,9 C 6,7 km/h (2 Bft) 98,42 %
14.01.2016 10:00 2,3 C 76 % 1014,7 hPa 0,0 l/m 6,1 km/h (2 Bft) NO 0,83 h 0,051 mm 0,4 UV-I 197 W/m -1,5 C 1,7 C 9,5 km/h (2 Bft) 98,72 %
14.01.2016 11:00 2,9 C 72 % 1013,6 hPa 0,0 l/m 8,9 km/h (2 Bft) O-NO 1,00 h 0,076 mm 0,6 UV-I 290 W/m -1,7 C 0,7 C 13,9 km/h (3 Bft) 99,12 %
14.01.2016 12:00 3,8 C 69 % 1012,3 hPa 0,0 l/m 10,1 km/h (2 Bft) NO 0,92 h 0,127 mm 0,7 UV-I 273 W/m -1,4 C 0,8 C 16,2 km/h (3 Bft) 99,36 %
14.01.2016 13:00 4,1 C 67 % 1010,8 hPa 0,0 l/m 12,9 km/h (3 Bft) NO 0,92 h 0,127 mm 0,6 UV-I 290 W/m -1,5 C -0,7 C 20,0 km/h (4 Bft) 98,37 %
14.01.2016 14:00 4,5 C 65 % 1009,6 hPa 0,0 l/m 14,5 km/h (3 Bft) O-NO 1,00 h 0,153 mm 0,3 UV-I 212 W/m -1,6 C -1,2 C 21,4 km/h (4 Bft) 98,24 %
14.01.2016 15:00 4,2 C 65 % 1008,7 hPa 0,0 l/m 11,4 km/h (2 Bft) NO 0,67 h 0,127 mm 0,0 UV-I 84 W/m -1,8 C 0,3 C 17,6 km/h (3 Bft) 99,22 %
14.01.2016 16:00 2,8 C 71 % 1007,9 hPa 0,0 l/m 4,7 km/h (1 Bft) O-NO 0,00 h 0,076 mm 0,0 UV-I 10 W/m -1,9 C 2,4 C 7,1 km/h (2 Bft) 97,65 %
14.01.2016 17:00 1,2 C 76 % 1007,2 hPa 0,0 l/m 2,1 km/h (1 Bft) O-NO 0,00 h 0,025 mm 0,0 UV-I 0 W/m -2,5 C 1,2 C 4,0 km/h (1 Bft) 99,37 %
14.01.2016 18:00 -0,0 C 83 % 1006,7 hPa 0,0 l/m 0,7 km/h (0 Bft) S-SO 0,00 h 0,000 mm 0,0 UV-I 0 W/m -2,5 C -0,0 C 2,3 km/h (1 Bft) 97,80 %
14.01.2016 19:00 -0,2 C 86 % 1006,6 hPa 0,0 l/m 2,6 km/h (1 Bft) S 0,00 h 0,000 mm 0,0 UV-I 0 W/m -2,3 C -0,2 C 4,7 km/h (1 Bft) 99,16 %
14.01.2016 20:00 0,2 C 86 % 1007,0 hPa 0,0 l/m 3,8 km/h (1 Bft) S-SW 0,00 h 0,000 mm 0,0 UV-I 0 W/m -2,0 C 0,1 C 6,4 km/h (2 Bft) 98,20 %
14.01.2016 21:00 0,4 C 86 % 1007,5 hPa 0,0 l/m 5,9 km/h (2 Bft) S-SW 0,00 h 0,000 mm 0,0 UV-I 0 W/m -1,7 C -0,1 C 9,3 km/h (2 Bft) 98,77 %
14.01.2016 22:00 1,0 C 84 % 1007,8 hPa 0,0 l/m 9,1 km/h (2 Bft) W-SW 0,00 h 0,000 mm 0,0 UV-I 0 W/m -1,3 C -1,5 C 15,0 km/h (3 Bft) 98,70 %
14.01.2016 23:00 1,8 C 82 % 1008,2 hPa 0,0 l/m 10,8 km/h (2 Bft) W-SW 0,00 h 0,000 mm 0,0 UV-I 0 W/m -1,0 C -1,9 C 17,3 km/h (3 Bft) 98,65 %
15.01.2016 00:00 1,7 C 88 % 1008,6 hPa 0,0 l/m 15,6 km/h (3 Bft) W-SW 0,00 h 0,000 mm 0,0 UV-I 0 W/m -0,1 C -5,3 C 24,9 km/h (4 Bft) 98,72 %
15.01.2016 01:00 1,7 C 92 % 1009,0 hPa 0,0 l/m 13,1 km/h (3 Bft) W-SW 0,00 h 0,025 mm 0,0 UV-I 0 W/m 0,5 C -3,6 C 21,3 km/h (4 Bft) 98,21 %
15.01.2016 02:00 2,0 C 90 % 1009,5 hPa 0,0 l/m 8,6 km/h (2 Bft) S-SW 0,00 h 0,000 mm 0,0 UV-I 0 W/m 0,5 C -0,0 C 14,9 km/h (3 Bft) 98,78 %
15.01.2016 03:00 2,1 C 88 % 1009,4 hPa 0,0 l/m 10,9 km/h (2 Bft) SW 0,00 h 0,000 mm 0,0 UV-I 0 W/m 0,4 C -1,7 C 18,1 km/h (3 Bft) 98,43 %
15.01.2016 04:00 2,3 C 85 % 1008,8 hPa 0,0 l/m 14,6 km/h (3 Bft) S-SW 0,00 h 0,000 mm 0,0 UV-I 0 W/m 0,0 C -3,9 C 23,9 km/h (4 Bft) 99,12 %
15.01.2016 05:00 2,3 C 84 % 1008,6 hPa 0,0 l/m 11,3 km/h (2 Bft) S 0,00 h 0,026 mm 0,0 UV-I 0 W/m -0,2 C -1,8 C 19,0 km/h (3 Bft) 98,31 %
15.01.2016 06:00 2,3 C 80 % 1008,5 hPa 0,0 l/m 14,6 km/h (3 Bft) SW 0,00 h 0,025 mm 0,0 UV-I 0 W/m -0,7 C -3,8 C 25,1 km/h (4 Bft) 99,35 %
15.01.2016 07:00 2,5 C 77 % 1008,2 hPa 0,0 l/m 17,6 km/h (3 Bft) SW 0,00 h 0,026 mm 0,0 UV-I 4 W/m -1,2 C -5,3 C 27,9 km/h (4 Bft) 97,93 %
15.01.2016 08:00 2,1 C 78 % 1008,2 hPa 0,0 l/m 14,6 km/h (3 Bft) W-SW 0,00 h 0,025 mm 0,0 UV-I 13 W/m -1,3 C -4,0 C 22,9 km/h (4 Bft) 99,57 %
15.01.2016 09:00 2,5 C 77 % 1008,3 hPa 0,0 l/m 13,0 km/h (3 Bft) W-SW 0,33 h 0,025 mm 0,0 UV-I 101 W/m -1,2 C -2,7 C 20,8 km/h (4 Bft) 97,78 %
15.01.2016 10:00 2,5 C 75 % 1009,1 hPa 0,0 l/m 17,0 km/h (3 Bft) W-SW 0,00 h 0,051 mm 0,0 UV-I 51 W/m -1,5 C -4,9 C 29,4 km/h (5 Bft) 99,37 %
15.01.2016 11:00 2,4 C 75 % 1009,1 hPa 0,0 l/m 17,7 km/h (3 Bft) W-SW 0,42 h 0,051 mm 0,6 UV-I 203 W/m -1,7 C -5,5 C 28,5 km/h (4 Bft) 98,03 %
15.01.2016 12:00 2,5 C 71 % 1009,1 hPa 0,0 l/m 20,7 km/h (4 Bft) SW 0,17 h 0,127 mm 0,4 UV-I 142 W/m -2,2 C -6,6 C 35,0 km/h (5 Bft) 98,93 %
15.01.2016 13:00 2,2 C 73 % 1009,0 hPa 0,0 l/m 20,9 km/h (4 Bft) SW 0,00 h 0,102 mm 0,0 UV-I 74 W/m -2,1 C -7,1 C 34,1 km/h (5 Bft) 98,77 %
15.01.2016 14:00 1,0 C 88 % 1009,2 hPa 0,0 l/m 18,6 km/h (3 Bft) SW 0,00 h 0,076 mm 0,0 UV-I 64 W/m -0,8 C -7,7 C 31,7 km/h (5 Bft) 98,77 %
15.01.2016 15:00 1,2 C 84 % 1009,8 hPa 0,0 l/m 19,7 km/h (3 Bft) W-SW 0,00 h 0,025 mm 0,0 UV-I 33 W/m -1,2 C -7,9 C 33,3 km/h (5 Bft) 98,54 %
15.01.2016 16:00 0,5 C 88 % 1010,2 hPa 0,0 l/m 17,0 km/h (3 Bft) SW 0,00 h 0,026 mm 0,0 UV-I 8 W/m -1,3 C -7,5 C 29,2 km/h (5 Bft) 98,78 %
15.01.2016 17:00 0,4 C 87 % 1010,6 hPa 0,0 l/m 15,4 km/h (3 Bft) SW 0,00 h 0,025 mm 0,0 UV-I 0 W/m -1,6 C -6,7 C 24,8 km/h (4 Bft) 98,79 %
15.01.2016 18:00 0,1 C 88 % 1010,9 hPa 0,0 l/m 16,7 km/h (3 Bft) SW 0,00 h 0,025 mm 0,0 UV-I 0 W/m -1,7 C -7,7 C 25,7 km/h (4 Bft) 98,79 %
15.01.2016 19:00 0,1 C 87 % 1011,3 hPa 0,0 l/m 14,2 km/h (3 Bft) SW 0,00 h 0,026 mm 0,0 UV-I 0 W/m -1,8 C -6,3 C 22,5 km/h (4 Bft) 98,50 %
15.01.2016 20:00 -0,4 C 91 % 1011,4 hPa 0,0 l/m 14,5 km/h (3 Bft) W-SW 0,00 h 0,025 mm 0,0 UV-I 0 W/m -1,7 C -7,1 C 24,0 km/h (4 Bft) 99,08 %
15.01.2016 21:00 -0,3 C 93 % 1011,4 hPa 0,0 l/m 15,6 km/h (3 Bft) SW 0,00 h 0,000 mm 0,0 UV-I 0 W/m -1,4 C -7,7 C 25,9 km/h (4 Bft) 98,58 %
15.01.2016 22:00 -0,4 C 94 % 1011,6 hPa 0,0 l/m 14,9 km/h (3 Bft) SW 0,00 h 0,000 mm 0,0 UV-I 0 W/m -1,3 C -7,3 C 25,5 km/h (4 Bft) 98,85 %
15.01.2016 23:00 -0,3 C 94 % 1012,0 hPa 0,0 l/m 14,6 km/h (3 Bft) SW 0,00 h 0,000 mm 0,0 UV-I 0 W/m -1,2 C -7,1 C 25,9 km/h (4 Bft) 98,16 %
16.01.2016 00:00 -0,3 C 95 % 1012,2 hPa 0,0 l/m 16,5 km/h (3 Bft) SW 0,00 h 0,000 mm 0,0 UV-I 0 W/m -1,1 C -8,2 C 26,8 km/h (4 Bft) 99,29 %
16.01.2016 01:00 -0,4 C 96 % 1012,5 hPa 0,0 l/m 13,5 km/h (3 Bft) W-SW 0,00 h 0,000 mm 0,0 UV-I 0 W/m -1,1 C -6,5 C 23,0 km/h (4 Bft) 97,66 %
16.01.2016 02:00 -0,4 C 96 % 1013,1 hPa 0,0 l/m 10,9 km/h (2 Bft) SW 0,00 h 0,000 mm 0,0 UV-I 0 W/m -1,0 C -4,5 C 18,1 km/h (3 Bft) 99,57 %
16.01.2016 03:00 -0,3 C 96 % 1013,5 hPa 0,0 l/m 9,9 km/h (2 Bft) W-SW 0,00 h 0,000 mm 0,0 UV-I 0 W/m -0,9 C -3,7 C 15,8 km/h (3 Bft) 97,80 %
16.01.2016 04:00 -0,3 C 95 % 1013,9 hPa 0,0 l/m 9,0 km/h (2 Bft) W 0,00 h 0,000 mm 0,0 UV-I 0 W/m -1,0 C -2,8 C 15,7 km/h (3 Bft) 99,48 %
16.01.2016 05:00 -0,5 C 94 % 1014,5 hPa 0,0 l/m 8,9 km/h (2 Bft) W 0,00 h 0,000 mm 0,0 UV-I 0 W/m -1,3 C -3,0 C 15,4 km/h (3 Bft) 98,11 %
16.01.2016 06:00 -0,4 C 95 % 1015,3 hPa 0,0 l/m 7,4 km/h (2 Bft) W 0,00 h 0,000 mm 0,0 UV-I 0 W/m -1,1 C -1,4 C 14,4 km/h (3 Bft) 99,51 %
16.01.2016 07:00 -0,5 C 95 % 1016,1 hPa 0,0 l/m 6,9 km/h (2 Bft) W 0,00 h 0,000 mm 0,0 UV-I 0 W/m -1,2 C -1,4 C 13,3 km/h (3 Bft) 98,31 %
16.01.2016 08:00 -0,8 C 95 % 1017,3 hPa 0,0 l/m 3,8 km/h (1 Bft) W-NW 0,00 h 0,000 mm 0,0 UV-I 12 W/m -1,5 C -0,8 C 9,1 km/h (2 Bft) 99,22 %
16.01.2016 09:00 -0,6 C 94 % 1018,2 hPa 0,0 l/m 1,6 km/h (1 Bft) W-NW 0,00 h 0,000 mm 0,0 UV-I 26 W/m -1,5 C -0,6 C 5,9 km/h (2 Bft) 98,07 %
16.01.2016 10:00 -0,5 C 91 % 1018,9 hPa 0,0 l/m 2,7 km/h (1 Bft) W 0,17 h 0,000 mm 0,0 UV-I 121 W/m -1,8 C -0,5 C 7,6 km/h (2 Bft) 99,29 %
16.01.2016 11:00 -0,2 C 86 % 1019,2 hPa 0,6 l/m 5,8 km/h (2 Bft) W-SW 0,25 h 0,051 mm 0,5 UV-I 187 W/m -2,2 C -0,7 C 13,8 km/h (3 Bft) 98,20 %
16.01.2016 12:00 0,1 C 81 % 1019,5 hPa 0,2 l/m 6,8 km/h (2 Bft) W-SW 0,67 h 0,076 mm 0,6 UV-I 234 W/m -2,8 C -0,7 C 16,5 km/h (3 Bft) 99,02 %
16.01.2016 13:00 0,2 C 79 % 1019,5 hPa 0,2 l/m 6,3 km/h (2 Bft) W 0,67 h 0,102 mm 0,5 UV-I 192 W/m -3,1 C -0,7 C 14,0 km/h (3 Bft) 97,90 %
16.01.2016 14:00 0,6 C 70 % 1019,7 hPa 0,0 l/m 7,7 km/h (2 Bft) W 1,00 h 0,076 mm 0,1 UV-I 208 W/m -4,2 C -1,2 C 16,1 km/h (3 Bft) 97,92 %
16.01.2016 15:00 0,0 C 72 % 1020,0 hPa 0,0 l/m 8,1 km/h (2 Bft) W 0,00 h 0,076 mm 0,0 UV-I 48 W/m -4,4 C -1,7 C 17,7 km/h (3 Bft) 99,30 %
16.01.2016 16:00 -0,7 C 80 % 1020,2 hPa 0,0 l/m 10,2 km/h (2 Bft) W-SW 0,00 h 0,025 mm 0,0 UV-I 11 W/m -3,6 C -4,3 C 17,0 km/h (3 Bft) 98,14 %
16.01.2016 17:00 -1,2 C 85 % 1020,4 hPa 0,0 l/m 8,4 km/h (2 Bft) SW 0,00 h 0,026 mm 0,0 UV-I 0 W/m -3,4 C -3,2 C 14,1 km/h (3 Bft) 99,07 %
16.01.2016 18:00 -1,4 C 87 % 1020,6 hPa 0,0 l/m 7,0 km/h (2 Bft) SW 0,00 h 0,000 mm 0,0 UV-I 0 W/m -3,3 C -2,2 C 12,5 km/h (3 Bft) 98,36 %
16.01.2016 19:00 -1,8 C 88 % 1020,2 hPa 0,0 l/m 5,2 km/h (1 Bft) SW 0,00 h 0,000 mm 0,0 UV-I 0 W/m -3,6 C -1,8 C 9,1 km/h (2 Bft) 98,88 %
16.01.2016 20:00 -2,3 C 89 % 1019,7 hPa 0,0 l/m 7,5 km/h (2 Bft) SW 0,00 h 0,000 mm 0,0 UV-I 0 W/m -3,8 C -3,9 C 12,0 km/h (2 Bft) 98,31 %
16.01.2016 21:00 -2,0 C 88 % 1018,9 hPa 0,0 l/m 6,8 km/h (2 Bft) SW 0,00 h 0,000 mm 0,0 UV-I 0 W/m -3,7 C -2,8 C 11,7 km/h (2 Bft) 98,83 %
16.01.2016 22:00 -1,8 C 91 % 1018,5 hPa 0,0 l/m 4,0 km/h (1 Bft) SW 0,00 h 0,000 mm 0,0 UV-I 0 W/m -3,1 C -1,8 C 7,1 km/h (2 Bft) 98,47 %
16.01.2016 23:00 -1,4 C 92 % 1018,1 hPa 0,0 l/m 11,0 km/h (2 Bft) W-SW 0,00 h 0,000 mm 0,0 UV-I 0 W/m -2,6 C -5,7 C 17,7 km/h (3 Bft) 97,73 %
17.01.2016 00:00 -0,6 C 89 % 1017,4 hPa 0,0 l/m 11,5 km/h (2 Bft) SW 0,00 h 0,000 mm 0,0 UV-I 0 W/m -2,3 C -5,3 C 19,2 km/h (3 Bft) 97,43 %
17.01.2016 01:00 -0,6 C 89 % 1017,0 hPa 0,0 l/m 10,0 km/h (2 Bft) S-SW 0,00 h 0,000 mm 0,0 UV-I 0 W/m -2,2 C -4,1 C 17,4 km/h (3 Bft) 97,76 %
17.01.2016 02:00 -1,1 C 94 % 1016,8 hPa 0,0 l/m 12,4 km/h (3 Bft) S-SW 0,00 h 0,000 mm 0,0 UV-I 0 W/m -2,0 C -6,5 C 20,5 km/h (4 Bft) 99,14 %
17.01.2016 03:00 -0,9 C 93 % 1016,5 hPa 0,0 l/m 13,7 km/h (3 Bft) W-SW 0,00 h 0,000 mm 0,0 UV-I 0 W/m -1,8 C -7,2 C 22,1 km/h (4 Bft) 98,01 %
17.01.2016 04:00 -0,5 C 87 % 1016,5 hPa 0,0 l/m 18,4 km/h (3 Bft) W 0,00 h 0,000 mm 0,0 UV-I 0 W/m -2,5 C -9,4 C 32,2 km/h (5 Bft) 99,15 %
17.01.2016 05:00 -0,9 C 86 % 1016,6 hPa 0,0 l/m 19,0 km/h (3 Bft) SW 0,00 h 0,025 mm 0,0 UV-I 0 W/m -2,9 C -10,3 C 30,9 km/h (5 Bft) 97,50 %
17.01.2016 06:00 -1,8 C 93 % 1016,5 hPa 0,0 l/m 19,6 km/h (3 Bft) W-SW 0,00 h 0,026 mm 0,0 UV-I 0 W/m -2,8 C -11,7 C 32,2 km/h (5 Bft) 99,23 %
17.01.2016 07:00 -2,1 C 94 % 1016,9 hPa 0,0 l/m 20,5 km/h (4 Bft) W-SW 0,00 h 0,000 mm 0,0 UV-I 2 W/m -2,9 C -12,6 C 33,8 km/h (5 Bft) 97,64 %
17.01.2016 08:00 -2,1 C 91 % 1017,5 hPa 0,0 l/m 20,8 km/h (4 Bft) W 0,00 h 0,000 mm 0,0 UV-I 20 W/m -3,4 C -12,7 C 35,1 km/h (5 Bft) 99,13 %
17.01.2016 09:00 -1,9 C 86 % 1018,0 hPa 0,0 l/m 16,8 km/h (3 Bft) W 0,00 h 0,025 mm 0,0 UV-I 42 W/m -3,9 C -10,3 C 28,4 km/h (4 Bft) 97,89 %
17.01.2016 10:00 -1,3 C 81 % 1018,5 hPa 0,0 l/m 15,7 km/h (3 Bft) W-SW 0,00 h 0,026 mm 0,0 UV-I 106 W/m -4,2 C -9,0 C 29,0 km/h (5 Bft) 99,28 %
17.01.2016 11:00 -1,0 C 80 % 1018,6 hPa 0,0 l/m 15,0 km/h (3 Bft) W 0,00 h 0,050 mm 0,5 UV-I 164 W/m -4,1 C -8,2 C 27,8 km/h (4 Bft) 98,21 %
17.01.2016 12:00 -0,6 C 79 % 1018,6 hPa 0,0 l/m 13,7 km/h (3 Bft) W-SW 0,58 h 0,077 mm 0,6 UV-I 274 W/m -3,8 C -6,9 C 25,9 km/h (4 Bft) 99,22 %
17.01.2016 13:00 -0,3 C 74 % 1018,6 hPa 0,0 l/m 11,7 km/h (2 Bft) W 1,00 h 0,101 mm 0,5 UV-I 280 W/m -4,3 C -4,9 C 23,5 km/h (4 Bft) 98,57 %
17.01.2016 14:00 -0,4 C 73 % 1019,0 hPa 0,0 l/m 5,8 km/h (2 Bft) W-NW 0,75 h 0,102 mm 0,2 UV-I 205 W/m -4,7 C -1,0 C 15,3 km/h (3 Bft) 98,64 %
17.01.2016 15:00 -0,9 C 73 % 1019,4 hPa 0,0 l/m 7,0 km/h (2 Bft) W 0,33 h 0,076 mm 0,0 UV-I 69 W/m -5,1 C -2,0 C 14,0 km/h (3 Bft) 99,34 %
17.01.2016 16:00 -1,3 C 77 % 1019,8 hPa 0,0 l/m 8,2 km/h (2 Bft) W 0,00 h 0,025 mm 0,0 UV-I 10 W/m -4,8 C -3,2 C 15,0 km/h (3 Bft) 97,87 %
17.01.2016 17:00 -1,7 C 81 % 1020,6 hPa 0,0 l/m 8,6 km/h (2 Bft) W-SW 0,00 h 0,026 mm 0,0 UV-I 0 W/m -4,5 C -4,0 C 14,8 km/h (3 Bft) 99,39 %
17.01.2016 18:00 -1,9 C 83 % 1021,2 hPa 0,0 l/m 8,9 km/h (2 Bft) W-SW 0,00 h 0,000 mm 0,0 UV-I 0 W/m -4,5 C -4,5 C 14,8 km/h (3 Bft) 97,94 %
17.01.2016 19:00 -2,2 C 84 % 1021,8 hPa 0,0 l/m 7,2 km/h (2 Bft) W-SW 0,00 h 0,000 mm 0,0 UV-I 0 W/m -4,6 C -3,2 C 12,9 km/h (3 Bft) 99,44 %
17.01.2016 20:00 -2,3 C 85 % 1022,3 hPa 0,0 l/m 7,7 km/h (2 Bft) W-SW 0,00 h 0,000 mm 0,0 UV-I 0 W/m -4,5 C -3,9 C 13,2 km/h (3 Bft) 97,68 %
17.01.2016 21:00 -2,4 C 86 % 1022,6 hPa 0,0 l/m 6,8 km/h (2 Bft) W 0,00 h 0,000 mm 0,0 UV-I 0 W/m -4,4 C -3,5 C 12,9 km/h (3 Bft) 98,79 %
17.01.2016 22:00 -2,6 C 87 % 1023,1 hPa 0,0 l/m 5,8 km/h (1 Bft) W-SW 0,00 h 0,000 mm 0,0 UV-I 0 W/m -4,4 C -3,0 C 11,6 km/h (2 Bft) 98,09 %
17.01.2016 23:00 -2,7 C 87 % 1023,6 hPa 0,0 l/m 6,0 km/h (2 Bft) W 0,00 h 0,000 mm 0,0 UV-I 0 W/m -4,5 C -3,1 C 11,0 km/h (2 Bft) 99,21 %
Min-Datum _ 17.01.16 14.01.16 11.01.16 - 11.01.16 - - - - - 17.01.16 17.01.16 11.01.16 17.01.16
_ Min-Zeit 23:50 14:45 14:30 - 01:10 - - - - - 15:20 08:35 01:10 00:05
Minimum _ -2,8 C 63 % 991,9 hPa - 0,0 km/h (0 Bft) - - - - - -5,5 C -14,2 C 0,0 km/h (0 Bft) 77,53 %
Max-Datum _ 11.01.16 11.01.16 17.01.16 11.01.16 13.01.16 - 14.01.16 14.01.16 14.01.16 16.01.16 11.01.16 11.01.16 13.01.16 11.01.16
_ Max-Zeit 23:40 00:00 23:45 13:00 11:35 - 11:50 14:00 11:30 12:05 16:25 23:15 11:15 00:10
Maximum _ 6,6 C 99 % 1023,8 hPa 1,6 l/m 35,6 km/h
SW (5 Bft)
- 0,25 h 0,153 mm 0,7 UV-I 418 W/m 5,9 C 5,1 C 64,4 km/h
SW (8 Bft)
100,00 %
Durchschnitt _ 1,8 C 85 % 1009,2 hPa #8,8 l/m 13,2 km/h (3 Bft) W-SW #13:50 h #4,825 mm 0,5 UV-I 87 W/m -0,5 C -3,1 C 22,4 km/h (4 Bft) 98,60 %